Hourly Data Report for June 13, 2012

HALIFAX STANFIELD INT'L A
NOVA SCOTIA

44°52'48.060" N
63°30'00.050" W
145.40 m
8202250
71395
YHZ

Download Data

Hourly Data (June 2012)
Hourly Data Report for June 13, 2012
TIME
LST
Temp Definition
°C
Dew Point Definition
°C
Rel Hum Definition
%
Precip. Amount Definition
mm

Wind Dir Definition
10's deg

Wind Spd Definition
km/h
Visibility Definition
km
Stn Press Definition
kPa
Hmdx Definition


Wind Chill Definition


Weather Definition


00:00 7.2 7.2 100   16 9 1.0 100.22     Fog
01:00 7.2 7.2 100   15 7 0.8 100.22     Fog
02:00 7.2 7.2 100   17 13 0.8 100.20     Fog
03:00 7.0 7.0 100   15 9 0.4 100.16     Fog
04:00 6.8 6.7 99   21 9 0.2 100.15     Fog
05:00 6.6 6.5 99   15 6 0.2 100.14     Fog
06:00 7.0 6.9 99   20 4 0.4 100.15     Fog
07:00 7.4 7.3 99   13 11 0.8 100.19     Fog
08:00 9.0 8.6 97   19 4 16.1 100.20     Mostly Cloudy
09:00 13.3 9.6 78   20 6 24.1 100.16     Mainly Clear
10:00 16.1 11.2 73   14 11 24.1 100.13     Mainly Clear
11:00 17.7 7.2 50   13 15 24.1 100.09     Mainly Clear
12:00 19.5 9.0 51   16 9 24.1 100.07     Mainly Clear
13:00 20.0 7.0 43   17 15 24.1 100.06     Mainly Clear
14:00 20.5 9.5 49   19 13 24.1 100.05     Mainly Clear
15:00 21.0 10.5 51   17 9 24.1 100.03     Mostly Cloudy
16:00 20.1 11.9 59   15 17 24.1 100.04     Mostly Cloudy
17:00 19.8 11.8 60   18 13 24.1 100.03     Mainly Clear
18:00 18.8 11.4 62   17 11 24.1 100.03     Mainly Clear
19:00 16.8 11.7 72   18 11 24.1 100.06     Mainly Clear
20:00 13.9 11.0 83   17 11 24.1 100.09     Mainly Clear
21:00 11.9 10.6 92   18 7 24.1 100.14     Mainly Clear
22:00 10.7 10.1 96   16 9 24.1 100.14     Mainly Clear
23:00 10.4 10.3 99   16 7 0.4 100.15     Fog

Notes on Data Quality.

Legend

  • E = Estimated
  • M = Missing
  • NA = Not Available*
  • [empty] = Indicates an unobserved value
Date modified: